Kars, Turkey

10:14 PM EEST on August 03, 2015 (GMT +0300)
Gyumri Shirak Airport | | Change Station
CLOSE
Current Station
Airport
Location: Gyumri Shirak Airport,
Elevation: 5000 ft
Nearby Weather Stations

Elev 5000 ft 40.75 °N, 43.86 °E | Updated 14 minutes ago

Partly Cloudy
Partly Cloudy
75 °F
Feels Like 75 °F
N
25
Wind Variable Wind from ENE
Gusts 36 mph

Today
High -- | Low -- °F
--% Chance of Precip.
Yesterday
High -- | Low -- °F
Precip. -- in
5:05 AM 7:20 PM
Waning Gibbous, 85% visible
Pressure 30.12 in
Visibility 6.2 miles
Clouds Few 5000 ft
Dew Point 48 °F
Humidity 38%
Rainfall 0.00 in
Snow Depth Not available.
UV 0 out of 12
Pollen Not available.
Air Quality Not available.
Flu Activity Not available.
METAR UDSG 031900Z 06011G16MPS 9999 FEW050 24/09 Q1020 R02/CLRD70 NOSIG

More Conditions Fewer Conditions

Pressure 30.12 in
Visibility 6.2 miles
Clouds Few 5000 ft
Dew Point 48 °F
Humidity 38%
Rainfall 0.00 in
Snow Depth Not available.
UV 0 out of 12
Pollen Not available.
Air Quality Not available.
Flu Activity Not available.
METAR UDSG 031900Z 06011G16MPS 9999 FEW050 24/09 Q1020 R02/CLRD70 NOSIG

More Conditions Fewer Conditions

10-Day Weather Forecast

×

Almanac

Astronomy

Aug. 03, 2015 Rise Set
Actual Time
Civil Twilight
Nautical Twilight
Astronomical Twilight
Moon
Length of Visible Light
Length of Day
Tomorrow will be .
, % of the Moon is Illuminated

Today's Extremes

Country Highs Country Lows

Community

WunderPhotos

Upload Photos

1,843,707 photos uploaded!

WunderBlogs® & News

Nearby

Air Quality

  Air Quality AQ Index Pollutant
Not available.

Snow Depth

Station Depth Elevation

Earthquake Activity

City Distance Mag. Time & Date
Minimum magnitude displayed is 2.5.

Coastal Water Temperatures

Place Temperature

Stations

Nearby Weather Stations

Station Location Temp. Windchill Dew Point Humidity Wind Precip. Elev Updated Type